Home   Weather   Boston   Past weeks
Flag for USA

Past Weather in Boston, Massachusetts, USA — Yesterday and Last 2 Weeks

Now
63 °F

Overcast.


Feels Like: 63 °F
Forecast: 82 / 58 °F
Wind: 20 mph from Southwest

Location: Logan International Airport

Current Time: May 25, 2019 at 11:21:00 pm

Latest Report: May 25, 2019 at 10:54 pm


Visibility: 10 mi

Pressure: 30.04 "Hg

Humidity: 40%

Dew Point: 38 °F

Location of BostonLocation

Past Weather in Boston — Graph

°F

Boston Temperature Yesterday

Maximum temperature yesterday: 72 °F (at 12:54 pm)
Minimum temperature yesterday: 53 °F (at 11:54 pm)
Average temperature yesterday: 64 °F

High & Low Weather Summary for the Past Weeks

 TemperatureHumidityPressure
High86 °F (May 20, 2:54 pm)93% (May 17, 11:54 am)30.26 "Hg (May 17, 11:54 am)
Low43 °F (May 14, 1:54 am)23% (May 11, 4:54 pm)29.62 "Hg (May 24, 4:54 am)
Average58 °F64%29.91 "Hg
* Reported May 10 9:54 pm — May 25 9:54 pm, Boston. Weather by CustomWeather, © 2019

Note: Actual official high and low records may vary slightly from our data, if they occured in-between our weather recording intervals... More about our weather records

Advertising

Boston Weather History for the Previous 24 Hours

Scroll right to see more
 ConditionsComfort  
Time TempWeatherWind HumidityBarometerVisibility
9:54 pm
Sat, May 25
65 °FPassing clouds.15 mph44%30.05 "Hg10 mi
8:54 pm66 °FMostly cloudy.15 mph47%30.05 "Hg10 mi
7:54 pm67 °FCloudy.15 mph45%30.04 "Hg10 mi
6:54 pm70 °FOvercast.15 mph42%30.06 "Hg10 mi
5:54 pm64 °FPartly sunny.14 mph58%30.06 "Hg10 mi
4:54 pm65 °FPartly sunny.18 mph51%30.09 "Hg10 mi
3:54 pm69 °FPartly sunny.16 mph47%30.12 "Hg10 mi
2:54 pm67 °FPartly sunny.18 mph49%30.14 "Hg10 mi
1:54 pm69 °FPartly sunny.13 mph44%30.16 "Hg10 mi
12:54 pm70 °FBroken clouds.14 mph44%30.17 "Hg10 mi
11:54 am69 °FBroken clouds.10 mph49%30.19 "Hg10 mi
10:54 am69 °FScattered clouds.8 mph39%30.20 "Hg10 mi
9:54 am69 °FScattered clouds.5 mph42%30.18 "Hg10 mi
8:54 am65 °FPassing clouds.10 mph47%30.19 "Hg10 mi
7:54 am62 °FPassing clouds.10 mph52%30.19 "Hg10 mi
6:54 am59 °FPassing clouds.9 mph58%30.19 "Hg10 mi
5:54 am55 °FPassing clouds.8 mph67%30.17 "Hg10 mi
4:54 am55 °FClear.8 mph64%30.15 "Hg10 mi
3:54 am55 °FClear.8 mph64%30.14 "Hg10 mi
2:54 am54 °FClear.7 mph64%30.13 "Hg10 mi
1:54 am53 °FClear.5 mph69%30.13 "Hg10 mi
12:54 am53 °FClear.5 mph66%30.13 "Hg10 mi
11:54 pm
Fri, May 24
53 °FClear.No wind66%30.14 "Hg10 mi
Weather by CustomWeather, © 2019

See weather overview